Tracking 23758 objects as of 27-Oct-2021
HD Live streaming from Space Station
objects crossing your sky now

IRIDIUM 33 DEB

Track IRIDIUM 33 DEB now!
10-day predictions


NORAD ID: 33867
Int'l Code: 1997-051AL
Perigee: 690.3 km
Apogee: 724.4 km
Inclination: 86.4 °
Period: 98.8 minutes
Semi major axis: 7078 km
RCS: 0.1307 m2 (medium)
Launch date: September 14, 1997
Source: United States (US)
Launch site: TYURATAM MISSILE AND SPACE COMPLEX (TTMTR)

Note: This is SATELLITE DEBRIS
aabbcc
Your satellite tracking list
Your tracking list is empty




NASA's NSSDC Master Catalog

Two Line Element Set (TLE):
1 33867U 97051AL  21299.41586916  .00001827  00000-0  39310-3 0  9999
2 33867  86.4142 303.7649 0024135 214.6810 145.2826 14.57820746672471
Source of the keplerian elements: AFSPC